Total_Precipitation_Accumulation
0.01 0.01 0.10 0.06 0.07 0.05 0.09 0.10 0.16 0.28 0.37 0.42 0.64 0.42 0.32 0.19 0.17 0.23 0.17 0.16 0.18 0.07 0.05 0.07 0.04 0.02 0.01 0.01 0.01 0.01 0.00 0.01 0.00 0.00 0.00 0.00 0.00 0.00 0.00 0.00 0.00 0.00 0.00
0.27 0.10 0.16 0.14 0.09 0.04 0.12 0.08 0.09 0.18 0.29 0.33 0.32 0.51 0.32 0.20 0.20 0.23 0.14 0.14 0.28 0.15 0.07 0.09 0.11 0.03 0.07 0.02 0.01 0.01 0.01 0.01 0.02 0.00 0.00 0.00 0.00 0.00 0.00 0.00 0.00 0.00 0.00
0.67 0.70 0.72 0.41 0.22 0.12 0.07 0.10 0.13 0.16 0.11 0.11 0.20 0.43 0.39 0.20 0.22 0.19 0.29 0.27 0.23 0.19 0.16 0.15 0.16 0.09 0.16 0.08 0.10 0.05 0.01 0.02 0.06 0.04 0.01 0.00 0.00 0.00 0.00 0.00 0.00 0.00 0.00
1.12 1.21 0.91 0.60 0.30 0.20 0.26 0.28 0.17 0.18 0.11 0.09 0.11 0.16 0.20 0.18 0.12 0.13 0.15 0.34 0.20 0.20 0.29 0.21 0.18 0.14 0.22 0.24 0.15 0.18 0.09 0.11 0.07 0.08 0.03 0.01 0.00 0.02 0.12 0.00 0.00 0.00 0.00
1.58 1.53 1.40 0.94 0.68 0.66 0.69 0.71 0.61 0.47 0.31 0.19 0.10 0.08 0.10 0.11 0.05 0.06 0.09 0.15 0.33 0.26 0.30 0.28 0.24 0.38 0.29 0.28 0.24 0.28 0.17 0.14 0.10 0.12 0.08 0.02 0.01 0.02 0.03 0.01 0.00 0.00 0.00
1.20 1.27 1.07 0.78 0.79 1.04 1.17 1.50 0.95 0.68 0.59 0.50 0.30 0.37 0.32 0.22 0.28 0.14 0.13 0.27 0.40 0.41 0.37 0.33 0.31 0.31 0.29 0.27 0.20 0.13 0.24 0.29 0.36 0.30 0.10 0.07 0.09 0.09 0.07 0.07 0.03 0.02 0.01
0.41 0.78 1.03 1.03 1.06 0.97 0.99 1.19 1.22 1.25 0.94 0.79 0.67 0.64 0.53 0.56 0.59 0.33 0.36 0.30 0.48 0.47 0.38 0.35 0.41 0.23 0.23 0.10 0.19 0.24 0.31 0.36 0.34 0.30 0.13 0.19 0.18 0.27 0.21 0.14 0.14 0.14 0.06
0.18 0.21 0.45 0.73 1.15 1.12 0.87 0.78 0.92 0.83 0.68 0.65 0.61 0.74 0.73 0.63 0.53 0.55 0.75 0.44 0.41 0.46 0.45 0.38 0.32 0.31 0.35 0.21 0.24 0.21 0.20 0.25 0.37 0.28 0.19 0.14 0.15 0.14 0.10 0.11 0.15 0.09 0.07
0.21 0.22 0.14 0.16 0.36 0.62 0.70 0.64 0.54 0.66 0.60 0.57 0.66 0.84 0.58 0.48 0.50 0.47 0.72 0.75 0.44 0.55 0.66 0.49 0.41 0.34 0.47 0.46 0.27 0.26 0.13 0.11 0.19 0.16 0.06 0.05 0.07 0.11 0.07 0.05 0.09 0.24 0.16
0.22 0.30 0.26 0.20 0.20 0.17 0.19 0.30 0.42 0.49 0.62 0.51 0.36 0.32 0.35 0.40 0.47 0.46 0.57 0.47 0.40 0.42 0.41 0.43 0.44 0.22 0.48 0.47 0.24 0.21 0.11 0.16 0.16 0.13 0.10 0.05 0.06 0.08 0.11 0.08 0.16 0.28 0.21
0.25 0.17 0.14 0.17 0.26 0.25 0.26 0.43 0.57 0.55 0.42 0.33 0.36 0.54 0.47 0.42 0.50 0.54 0.47 0.38 0.33 0.27 0.31 0.36 0.31 0.43 0.45 0.49 0.35 0.27 0.20 0.17 0.19 0.09 0.10 0.11 0.10 0.08 0.19 0.23 0.23 0.34 0.28
0.19 0.24 0.19 0.13 0.21 0.27 0.39 0.47 0.33 0.27 0.40 0.50 0.61 0.50 0.48 0.61 0.55 0.47 0.50 0.38 0.35 0.20 0.18 0.27 0.37 0.37 0.48 0.49 0.49 0.47 0.36 0.20 0.11 0.12 0.10 0.10 0.11 0.11 0.18 0.27 0.46 0.47 0.48
0.16 0.12 0.11 0.08 0.13 0.25 0.31 0.33 0.32 0.30 0.30 0.27 0.30 0.33 0.41 0.52 0.45 0.55 0.68 0.49 0.42 0.30 0.26 0.32 0.34 0.40 0.37 0.34 0.32 0.30 0.28 0.22 0.18 0.20 0.16 0.16 0.15 0.21 0.24 0.41 0.42 0.37 0.44
0.17 0.14 0.12 0.06 0.05 0.10 0.25 0.33 0.19 0.27 0.30 0.36 0.44 0.56 0.63 0.60 0.44 0.46 0.68 0.76 0.71 0.50 0.47 0.34 0.34 0.30 0.29 0.24 0.26 0.26 0.20 0.22 0.21 0.19 0.18 0.21 0.33 0.47 0.50 0.54 0.51 0.65 0.68
0.08 0.20 0.25 0.23 0.20 0.24 0.27 0.38 0.49 0.62 0.56 0.65 0.75 0.83 0.76 0.67 0.76 1.04 1.17 1.24 1.32 1.48 1.41 0.94 0.80 0.61 0.57 0.40 0.33 0.30 0.27 0.24 0.25 0.47 0.68 0.81 0.81 0.87 0.75 0.82 0.94 1.09 1.21
0.26 0.41 0.52 0.59 0.66 0.69 0.75 0.85 1.04 0.99 0.94 1.09 1.17 1.11 1.45 2.02 2.64 2.56 3.00 3.25 3.05 2.82 2.39 1.81 1.40 0.89 0.69 0.69 0.73 0.59 0.46 0.40 0.42 0.81 0.99 0.98 1.00 0.91 0.84 0.93 0.95 0.86 0.84
0.35 0.26 0.23 0.37 0.64 0.72 0.84 0.84 0.85 1.02 1.03 1.06 1.31 1.43 1.41 1.20 1.14 1.31 1.65 1.72 1.65 1.41 0.85 0.55 0.48 0.47 0.52 0.71 0.78 0.70 0.64 0.56 0.73 1.04 1.18 1.06 0.98 0.91 1.00 0.92 0.94 0.94 0.87
0.77 0.97 0.95 0.74 0.68 0.57 0.63 0.71 0.94 1.01 0.95 0.80 0.62 0.63 0.51 0.53 0.76 0.86 1.05 0.81 0.45 0.43 0.28 0.36 0.27 0.36 0.37 0.35 0.40 0.44 0.43 0.56 0.80 1.00 1.01 0.90 1.00 1.02 0.88 0.78 0.97 1.08 1.03
1.28 0.90 1.01 1.40 1.53 1.32 1.23 1.04 0.62 0.39 0.40 0.34 0.36 0.44 0.54 0.57 0.74 0.77 0.72 0.46 0.40 0.37 0.47 0.49 0.52 0.72 0.70 0.65 0.69 0.64 0.63 1.00 1.26 1.55 1.82 1.82 1.95 2.25 2.34 2.54 3.13 3.82 3.75
1.74 2.34 1.99 1.76 1.84 1.84 1.85 1.96 1.75 1.40 1.27 1.01 0.92 0.82 0.87 0.92 0.82 0.87 0.85 0.96 0.85 0.90 1.10 1.08 1.04 1.08 1.12 1.12 1.33 1.47 1.45 1.64 1.74 2.05 2.28 2.38 2.77 3.27 3.59 3.81 3.50 3.02 2.57
1.40 1.34 1.45 1.44 1.80 2.03 2.03 2.15 2.15 2.09 2.07 2.02 2.09 2.14 2.31 2.19 1.73 1.67 1.73 1.80 1.59 1.60 1.98 2.28 2.67 3.20 3.36 3.49 3.55 3.61 3.44 3.41 3.42 3.45 3.97 4.11 4.03 3.88 3.70 3.02 2.47 2.32 2.17
0.55 0.89 1.08 1.30 0.84 0.78 0.79 0.74 0.88 0.93 0.98 1.15 1.14 1.33 1.61 1.59 1.38 1.51 1.49 1.44 1.46 1.65 1.92 1.98 2.05 2.16 2.28 2.50 2.49 2.12 1.77 2.00 2.13 2.27 2.31 2.35 2.31 2.38 2.60 2.43 2.04 1.78 1.64
0.28 0.40 0.48 0.80 1.32 1.29 1.40 1.25 1.05 0.74 0.71 0.73 0.88 0.66 0.43 0.46 0.41 0.43 0.43 0.43 0.44 0.42 0.55 0.53 0.51 0.44 0.32 0.31 0.35 0.32 0.26 0.28 0.33 0.46 0.54 0.64 0.78 0.82 0.87 0.77 0.70 0.64 0.64
0.12 0.49 0.87 0.70 0.64 0.67 0.64 1.15 1.93 2.20 1.91 1.64 1.32 1.20 1.13 0.82 0.71 0.78 0.82 0.64 0.57 0.55 0.45 0.44 0.33 0.31 0.25 0.28 0.31 0.31 0.30 0.39 0.41 0.32 0.29 0.31 0.30 0.43 0.33 0.36 0.40 0.40 0.42
0.12 0.16 0.43 0.94 1.08 0.93 0.95 0.89 0.73 0.72 0.89 1.13 1.36 1.22 1.15 1.08 0.94 0.82 0.70 0.64 0.65 0.75 0.58 0.50 0.42 0.38 0.34 0.28 0.23 0.21 0.28 0.32 0.27 0.34 0.30 0.27 0.25 0.26 0.28 0.26 0.23 0.25 0.22
0.18 0.19 0.21 0.26 0.46 0.62 0.72 0.85 1.21 1.43 0.99 0.69 0.70 0.81 0.99 1.04 0.94 0.85 0.83 0.85 0.80 0.78 0.80 0.74 0.69 0.62 0.55 0.51 0.49 0.47 0.40 0.30 0.29 0.31 0.26 0.21 0.22 0.25 0.25 0.23 0.23 0.24 0.24